Theta_e
339 342 345 348 347 348 345 343 344 343 343 342 342 341 342 341 346 347 346 348 348 348 347 348 347 347 348 348 348 347 347 346 345 345 345 343 342 342 341 342 341 341 343 343 343 344 347 349 348 349 348 348 348 347 347 348 349 349 348 348 347 346 346 345 345 346 346 344 343 344 344 344 345 345 346 346 345 344 342 342 341 339 339 342 344
340 344 344 345 348 347 346 345 344 344 343 343 342 342 342 342 346 347 348 348 348 347 347 347 347 347 347 347 347 346 345 345 344 344 344 341 341 340 341 341 341 340 340 343 343 344 345 347 348 348 348 347 346 346 347 348 347 347 347 346 346 346 346 346 346 346 346 345 345 344 344 344 344 345 346 346 345 344 342 342 341 338 337 342 342
342 343 344 345 348 347 346 344 344 344 343 342 341 341 341 341 346 346 347 348 347 346 346 346 347 347 347 346 346 345 344 344 343 343 343 341 340 340 341 341 340 340 342 342 341 341 343 345 345 346 345 345 344 346 347 347 346 346 346 345 344 344 344 345 346 345 346 344 343 343 343 344 343 345 345 345 344 343 341 341 341 341 338 342 341
341 343 344 345 347 347 345 344 343 342 341 341 340 341 341 345 347 347 347 346 346 347 346 347 347 346 346 346 346 345 344 343 344 344 343 342 341 340 339 339 340 340 339 340 340 340 341 342 342 343 343 343 343 344 345 344 344 345 345 345 345 345 345 344 343 345 345 344 343 341 339 338 339 343 344 343 344 343 341 341 341 340 341 341 341
342 343 344 344 344 345 343 343 343 343 343 342 341 340 340 342 348 347 347 346 346 347 347 346 346 346 345 345 345 344 343 342 344 344 343 343 342 340 339 340 340 339 339 339 339 338 340 341 341 341 341 341 342 343 344 343 344 344 344 344 344 344 344 344 346 344 343 343 341 340 337 337 337 340 342 343 341 339 339 338 339 339 339 338 338
342 343 343 343 344 343 345 344 343 342 342 340 339 339 339 340 346 347 346 346 346 346 346 347 346 345 345 345 344 343 341 341 343 342 342 343 343 341 339 340 340 340 339 340 341 340 339 339 339 339 338 338 339 341 342 343 343 344 344 344 344 344 344 345 344 343 342 341 340 337 336 337 336 337 343 341 340 338 337 337 337 337 336 335 336
343 343 343 343 343 344 344 344 343 343 343 341 340 340 340 341 344 346 345 345 345 346 347 346 345 344 345 344 344 342 340 340 340 339 341 344 343 341 341 339 337 339 341 341 341 341 341 341 340 339 339 338 338 338 340 341 342 343 343 343 343 343 343 344 342 341 340 338 336 336 336 335 335 337 340 340 340 339 337 337 335 335 334 334 333
344 344 343 343 343 344 343 343 343 343 343 341 340 340 340 342 345 345 344 345 346 346 347 346 344 343 342 342 342 341 341 340 339 339 340 340 339 340 340 340 340 339 340 341 341 341 340 340 340 339 339 339 338 339 339 339 342 342 342 342 343 343 343 344 341 340 339 336 335 335 335 335 335 337 340 340 340 339 338 337 336 335 334 335 334
342 343 343 342 343 343 344 344 343 343 344 343 341 341 340 341 342 343 342 342 346 346 346 344 343 342 342 342 341 339 338 339 342 342 341 340 340 340 339 339 339 339 339 339 340 340 340 340 339 339 339 339 338 339 339 340 342 341 342 341 341 341 344 341 339 337 335 334 335 335 334 333 333 334 338 338 338 337 335 334 335 335 334 332 331
342 343 342 342 343 341 344 344 343 343 343 343 342 342 342 341 341 343 343 342 345 346 346 344 342 342 341 341 340 340 339 338 340 339 340 341 341 340 341 341 341 340 339 342 342 341 339 339 339 340 339 339 339 339 339 340 341 341 341 341 340 341 343 339 336 334 333 333 334 334 334 336 332 332 336 337 336 336 335 334 336 335 333 331 330
342 342 341 343 343 342 344 344 344 344 343 342 342 342 342 341 341 343 344 343 344 346 345 344 342 342 341 340 339 338 338 338 338 338 341 342 342 342 342 341 339 338 339 340 340 340 341 341 340 340 340 340 340 339 339 340 340 341 341 340 340 341 343 338 334 333 333 333 333 332 334 336 331 332 337 336 336 334 334 334 334 332 332 330 329
342 342 342 343 345 341 344 344 344 343 343 341 342 342 341 341 344 345 345 345 344 344 345 343 341 341 340 339 338 338 337 337 337 338 342 343 342 343 342 340 338 338 338 337 337 338 339 340 340 340 340 340 339 339 339 339 340 340 341 340 340 340 339 336 333 332 332 332 331 330 330 331 332 333 336 336 335 333 332 332 331 331 330 330 330
342 342 342 343 343 341 344 345 344 344 343 343 341 342 341 341 344 344 344 343 345 345 345 342 340 339 339 338 337 337 338 339 338 338 339 341 341 341 340 339 339 339 339 339 338 338 338 338 340 339 339 338 337 338 339 339 340 339 339 338 338 339 335 334 333 332 331 331 330 329 328 328 329 335 335 335 334 333 332 331 331 331 330 329 329
342 341 341 343 343 344 340 342 343 344 344 343 342 341 341 341 341 341 341 342 342 343 343 342 340 339 338 338 337 337 338 337 337 336 339 339 339 340 340 339 338 337 338 338 338 338 340 339 338 339 338 338 338 338 338 338 338 338 337 337 338 336 332 332 333 331 330 330 329 328 327 328 328 333 333 333 332 331 330 330 330 330 329 329 328
342 341 342 343 343 342 341 339 343 343 344 343 343 341 341 341 341 341 341 342 342 342 341 342 341 338 338 338 337 337 340 338 335 335 336 337 337 338 338 338 339 338 338 339 338 338 338 338 338 338 337 337 337 338 338 338 337 337 336 336 336 333 329 331 332 331 330 330 328 328 327 327 334 333 333 333 331 329 328 327 328 328 327 326 325
343 343 343 342 342 342 341 341 338 339 341 343 343 343 342 341 341 341 340 341 342 341 340 340 340 339 337 337 337 337 340 340 340 340 340 339 339 337 339 340 339 337 337 338 337 337 337 337 337 337 337 336 337 337 337 337 336 335 336 336 332 331 328 327 327 327 328 329 328 327 325 328 332 331 331 331 330 329 328 327 327 327 327 326 325
343 343 343 342 342 342 342 342 338 334 335 337 339 340 342 343 342 342 342 342 341 341 340 339 340 340 338 340 340 340 341 341 341 340 339 338 339 340 340 338 337 337 337 337 337 337 337 337 336 336 336 336 337 337 337 336 335 334 335 332 331 330 327 324 326 325 327 328 328 326 325 326 333 331 331 330 328 326 326 326 326 325 322 322 322
342 342 342 343 342 342 341 341 339 340 337 333 332 338 341 343 343 342 341 343 343 343 344 343 342 341 341 340 339 338 338 339 339 339 338 337 335 337 340 337 339 338 337 336 335 335 336 336 336 336 336 336 336 336 336 335 334 334 332 331 330 329 326 325 325 326 327 329 326 325 324 330 330 327 327 327 326 326 326 326 324 324 324 324 324
339 340 341 342 342 342 341 341 340 340 340 339 338 336 334 339 340 340 340 341 340 340 341 340 340 340 338 335 333 331 331 332 333 335 335 335 334 332 338 340 338 337 336 336 335 335 335 336 336 336 335 335 335 335 334 333 332 332 331 329 326 323 321 324 325 327 326 324 324 323 324 332 330 328 327 327 328 326 324 324 324 324 324 323 322
338 338 339 341 341 341 341 339 340 340 339 339 339 337 331 332 336 337 337 337 337 338 338 336 333 332 332 331 329 328 326 327 327 328 330 332 331 330 334 337 337 337 335 335 335 335 335 334 335 335 335 334 334 333 332 332 331 331 330 328 325 320 325 324 325 326 325 323 323 322 328 331 327 327 327 327 325 325 325 324 324 323 322 323 322
339 337 336 339 341 341 341 340 339 340 339 339 340 339 332 329 329 329 331 334 334 334 333 326 324 323 326 324 327 330 329 327 329 328 325 325 324 327 333 337 336 335 335 334 334 335 335 335 335 334 333 331 329 328 328 329 329 329 328 325 319 323 323 323 325 326 325 323 323 324 329 332 332 327 326 324 325 325 325 323 322 322 322 322 321
333 334 336 337 338 340 340 341 339 339 339 341 341 340 335 335 336 334 332 328 326 326 330 333 335 331 325 327 331 331 329 328 329 333 327 327 325 325 330 335 336 334 335 334 334 334 334 334 334 332 331 330 325 323 321 322 324 326 324 319 320 323 323 322 325 326 324 323 322 326 331 329 325 326 328 326 325 324 323 322 322 323 322 321 320
331 333 334 336 336 339 339 339 339 340 339 340 341 339 337 337 337 336 336 330 331 331 332 334 334 333 330 332 331 330 329 329 330 331 328 322 325 324 329 331 333 332 334 335 334 334 334 333 332 331 330 330 322 323 324 323 320 320 317 320 322 322 323 322 324 326 325 323 322 326 330 327 326 327 326 324 324 323 323 323 322 321 320 320 319
332 332 333 336 336 337 338 339 339 340 339 338 340 339 336 336 336 335 334 334 333 333 332 333 332 334 333 332 330 329 329 326 328 329 329 327 324 322 325 326 328 328 329 330 331 332 332 331 329 328 327 323 324 324 324 324 323 322 321 324 323 322 323 322 323 325 325 326 325 325 329 331 325 324 325 324 325 323 322 321 321 320 321 320 319
331 333 333 334 335 336 337 337 339 339 338 337 338 338 337 334 335 334 334 332 333 331 332 332 332 333 332 331 330 327 329 328 327 327 326 327 326 326 326 327 328 325 325 326 326 325 324 323 320 320 321 323 324 322 322 321 321 322 321 321 321 322 322 322 323 324 325 324 322 324 327 331 327 326 325 324 323 323 322 322 321 320 320 319 319
330 330 331 332 334 336 337 336 337 338 338 337 337 336 337 333 334 334 334 332 333 330 331 330 331 332 331 331 330 327 326 325 324 322 325 326 326 324 325 325 325 327 326 326 326 325 324 324 322 322 322 324 322 321 320 319 321 320 320 319 320 320 320 321 323 323 325 323 321 322 326 329 327 326 325 324 324 323 321 321 321 320 319 319 318
328 329 331 332 334 335 337 336 336 337 337 337 337 336 335 334 334 334 333 332 332 331 330 330 331 331 330 329 329 326 325 325 325 323 324 327 326 325 324 325 325 325 324 324 323 324 322 321 322 323 322 321 321 321 321 320 320 320 319 319 319 319 320 320 321 322 323 323 319 320 325 328 329 329 327 326 325 324 322 321 321 320 319 320 318
328 329 330 330 332 334 336 336 336 337 337 337 336 337 335 335 334 332 334 330 331 331 330 330 331 331 330 328 328 327 325 324 325 324 324 325 325 325 325 323 325 323 323 322 323 321 321 321 321 321 321 320 321 321 320 320 319 319 320 320 319 319 319 319 320 320 321 323 321 319 321 322 324 327 328 326 325 325 324 323 322 322 321 320 320
329 329 329 329 332 333 335 335 336 336 338 337 335 335 336 335 334 333 332 332 331 332 332 332 330 329 330 329 327 326 326 325 325 325 324 323 324 324 323 323 323 323 324 322 322 321 320 320 319 319 319 319 319 318 319 318 317 318 318 318 318 318 318 320 318 320 320 320 321 319 321 323 326 327 328 327 327 326 325 324 322 323 321 321 321
330 331 331 330 332 333 333 334 335 336 337 337 335 334 335 335 334 332 333 333 333 332 333 332 331 331 330 330 328 327 326 325 325 325 325 323 323 324 323 322 322 322 322 322 320 320 320 319 318 319 320 320 318 320 318 318 317 317 317 317 317 318 318 317 318 318 318 318 321 319 318 321 324 328 327 327 328 328 327 326 324 324 324 322 321
331 331 331 331 331 332 332 333 334 334 336 335 335 335 335 335 335 335 335 334 333 334 334 332 332 331 330 331 330 328 327 327 326 325 324 324 323 325 323 322 322 322 322 322 320 321 320 319 320 318 318 317 317 318 317 316 316 318 316 316 316 316 317 316 317 318 318 317 317 319 318 318 321 325 327 328 327 327 327 327 327 326 325 324 323
329 330 331 332 332 332 333 333 334 335 334 335 335 335 335 335 335 335 335 334 334 334 333 333 330 331 332 333 330 328 327 327 326 326 324 324 323 323 323 322 322 321 321 321 320 320 318 318 319 319 318 317 318 318 317 316 315 317 316 317 316 316 316 316 315 316 316 316 317 317 317 316 317 320 322 327 328 327 327 328 328 327 327 325 324
329 331 331 331 331 332 332 333 334 334 334 334 335 335 335 336 335 336 336 336 334 334 333 333 333 332 332 332 331 331 328 327 326 326 324 323 323 323 323 322 323 322 321 320 319 318 318 317 317 318 318 316 316 315 316 316 315 315 316 317 317 316 316 315 317 317 316 316 318 316 316 316 315 315 317 320 326 328 327 328 328 327 327 327 327
328 329 332 331 332 334 333 334 334 335 335 335 334 334 335 336 336 335 335 336 335 333 333 334 333 333 332 332 331 331 330 329 327 325 325 324 322 323 322 322 321 320 320 320 320 319 317 316 315 315 316 314 315 315 314 313 315 314 314 314 316 316 315 317 315 316 314 315 316 317 317 315 316 316 315 316 319 323 328 328 327 326 327 327 327
327 328 330 331 331 332 333 333 332 333 334 335 334 335 335 335 335 335 335 334 335 335 333 334 333 333 332 332 332 331 331 331 329 326 327 325 323 322 322 322 323 321 320 319 319 319 318 317 316 316 314 314 314 315 315 315 314 315 315 315 316 316 314 316 316 315 315 315 315 315 317 318 316 316 316 315 311 315 321 327 327 326 327 327 327
328 328 330 331 331 331 331 331 331 332 334 335 334 334 335 335 334 331 335 334 333 335 335 335 334 333 332 331 331 331 331 331 330 328 326 323 322 322 322 323 323 323 321 318 319 318 317 317 316 316 313 313 314 314 314 313 314 314 314 314 314 314 314 314 314 315 315 316 315 314 315 316 317 316 315 315 315 313 314 319 325 327 327 328 327
328 329 330 330 330 330 330 331 331 332 333 335 334 333 334 334 335 335 335 334 334 334 335 335 334 333 332 331 331 331 330 331 331 330 328 326 324 323 322 323 324 322 321 318 317 318 317 317 316 315 314 312 312 311 312 313 313 314 313 312 313 313 313 313 313 314 315 314 313 313 314 315 315 312 315 316 315 315 313 314 319 322 322 327 327
328 330 331 331 331 330 330 330 331 333 332 334 334 334 334 333 333 334 332 333 334 334 334 334 334 333 332 331 331 331 330 330 331 330 328 328 327 325 324 325 324 323 321 319 318 318 317 317 315 314 315 313 311 311 311 312 313 313 312 312 311 310 310 310 311 309 310 310 312 312 313 313 313 315 315 314 314 314 314 314 314 315 315 319 326
330 330 330 331 331 330 329 329 330 331 331 331 333 333 333 332 331 332 332 332 332 333 333 333 334 334 333 331 331 330 328 329 330 329 328 327 327 326 326 325 325 323 322 320 318 316 316 316 315 314 314 314 312 311 312 312 312 311 309 309 309 310 309 307 306 306 307 309 309 310 312 312 313 312 312 313 313 313 313 314 313 313 314 315 322
330 330 328 330 330 330 330 329 329 330 330 330 330 330 329 328 327 327 327 329 331 330 332 331 332 332 333 333 332 331 330 329 330 329 328 327 326 326 325 324 324 325 323 320 317 317 315 315 316 316 314 313 313 313 311 308 306 307 307 307 306 306 306 306 306 307 306 306 307 307 308 310 310 311 311 311 312 312 312 313 312 312 313 314 316
327 328 328 328 330 330 329 328 329 330 329 328 328 326 326 325 326 325 325 325 330 330 330 331 331 331 330 332 332 332 331 330 329 329 328 327 327 324 324 321 321 322 323 322 320 319 318 318 317 316 315 312 311 310 306 307 307 306 305 306 307 307 306 306 306 306 306 307 306 306 307 306 307 308 310 310 310 310 310 311 311 311 311 311 313
323 326 326 327 329 329 329 329 330 329 329 329 328 327 326 327 326 326 324 326 325 326 327 329 330 330 330 331 332 332 330 329 328 330 330 330 328 324 324 324 323 323 322 321 321 318 319 318 316 314 313 313 312 311 309 309 306 306 306 307 307 307 307 306 306 306 306 306 306 305 306 306 306 307 308 308 309 309 310 310 310 310 310 311 312
322 323 324 325 326 327 328 329 330 329 328 328 328 327 326 326 326 324 326 324 327 329 327 326 326 327 328 329 330 332 331 330 329 329 330 330 328 327 326 326 326 323 321 321 321 320 318 316 314 314 311 310 311 311 309 311 308 307 307 304 304 304 306 304 305 306 306 306 305 305 305 305 306 307 307 307 307 308 308 309 309 309 310 310 310
318 319 320 322 325 325 326 327 328 329 328 327 326 327 327 326 325 324 326 325 324 324 326 329 327 327 327 330 331 331 331 331 330 329 329 328 327 327 328 327 326 325 323 320 320 320 319 316 313 311 311 308 306 307 309 309 310 307 304 303 302 301 302 303 303 305 306 306 305 305 305 305 305 306 305 306 307 307 307 307 308 308 309 309 309
310 317 319 321 324 324 325 326 326 327 328 326 325 326 326 324 325 322 322 322 321 320 321 323 328 325 325 326 330 331 332 331 331 330 327 328 328 329 328 327 324 323 322 322 320 319 318 319 317 314 312 311 309 308 308 309 308 309 309 304 302 300 300 303 303 305 306 304 304 304 304 304 304 305 304 305 305 306 306 306 306 307 307 307 307
306 310 316 319 319 321 323 324 324 325 326 326 326 326 325 324 322 321 317 316 315 315 318 319 320 321 321 322 323 325 326 326 327 329 328 326 328 328 326 324 322 321 321 321 322 321 320 319 318 316 314 313 313 313 311 307 309 308 309 312 312 309 305 303 306 304 308 306 305 305 305 304 304 304 304 303 303 304 304 305 306 306 306 305 306
304 306 309 313 315 318 320 322 322 322 324 324 325 324 322 323 322 321 319 319 317 316 317 318 319 319 322 322 323 323 323 323 323 324 325 325 326 326 326 327 326 324 321 322 320 319 320 320 318 316 316 315 313 311 312 310 306 307 308 308 309 309 310 306 304 305 303 305 305 302 304 304 304 304 303 303 303 303 304 304 304 305 305 305 305
304 305 306 307 310 313 317 319 319 320 321 323 323 323 322 320 319 318 319 318 317 315 318 318 317 318 318 319 324 326 327 325 325 325 326 328 327 326 327 327 326 326 322 321 321 320 320 320 318 317 316 315 313 312 311 312 306 305 305 305 305 306 307 307 307 305 303 300 303 307 307 307 305 305 304 304 304 303 303 303 303 303 304 304 304
304 304 304 305 306 308 312 315 316 317 318 320 321 320 320 319 318 318 315 315 317 316 316 315 319 320 318 317 316 317 318 320 321 322 322 323 322 324 326 327 326 326 324 323 321 321 320 320 319 317 315 314 313 312 312 311 311 311 304 303 305 305 305 306 306 305 302 301 302 303 305 306 306 306 305 305 305 305 304 304 304 304 303 303 303
305 306 304 304 306 307 310 312 312 315 317 316 319 318 316 317 317 315 315 313 312 314 316 314 313 313 312 312 315 314 315 316 318 318 318 320 321 321 323 325 325 324 321 323 322 321 320 320 320 318 316 314 314 313 312 313 313 314 311 307 303 303 303 303 302 303 302 303 301 302 304 303 302 306 307 306 305 305 305 305 304 304 303 303 302
304 304 305 305 305 307 309 309 311 314 316 316 316 316 314 314 316 314 314 313 313 313 312 310 310 310 310 311 312 316 318 318 316 316 320 320 319 318 317 319 322 321 319 321 321 321 320 319 318 318 316 315 315 315 313 312 313 312 311 311 308 305 304 303 303 301 301 300 299 301 303 304 303 304 308 308 307 306 305 304 303 303 303 302 302
Wind_Speed
7 9 7 8 9 9 11 11 11 11 10 9 10 10 10 10 12 10 11 12 12 12 13 13 15 15 15 16 17 16 17 17 17 18 19 18 17 17 16 16 15 16 17 16 16 15 16 18 19 19 19 19 18 18 18 19 19 19 18 18 18 18 18 18 18 17 16 17 17 17 17 17 17 18 18 19 19 18 15 17 15 11 9 15 20
10 8 6 6 9 9 11 11 11 11 10 10 10 10 11 10 13 12 12 12 13 13 13 14 14 15 16 16 17 16 17 17 17 18 18 17 16 15 16 16 16 17 17 17 17 16 16 17 18 19 19 18 18 17 17 18 17 17 17 17 16 15 14 15 16 16 18 18 19 18 17 17 17 18 19 19 19 18 15 17 16 9 8 18 20
10 9 7 7 8 9 11 11 12 11 11 11 10 9 9 9 13 12 13 14 13 13 13 14 14 15 15 17 17 17 16 16 15 17 18 16 15 15 17 17 17 17 17 17 17 16 16 16 17 17 18 17 17 17 17 17 16 16 16 16 16 15 15 13 13 15 17 17 18 16 16 18 18 19 20 19 20 19 17 18 17 15 12 21 19
11 8 7 8 9 8 12 12 11 11 11 10 9 8 8 12 14 14 13 14 13 13 13 13 15 15 16 16 16 16 16 15 16 17 16 16 15 15 15 16 16 16 17 17 17 17 17 15 15 16 17 17 16 17 17 16 16 16 16 15 14 14 12 9 8 6 7 13 15 12 8 8 11 18 20 19 21 20 16 18 20 20 21 20 21
11 8 8 7 6 10 12 11 10 11 11 10 10 10 9 11 15 14 13 13 13 13 12 14 14 15 15 15 16 15 14 14 16 17 17 16 16 16 15 16 16 17 17 17 17 17 17 16 16 16 16 16 17 16 16 16 16 15 15 15 14 13 12 10 8 12 14 14 14 9 7 8 7 16 18 20 20 18 17 18 18 19 19 20 20
10 9 8 8 7 8 11 11 11 11 11 10 9 9 9 9 13 14 14 13 13 13 14 14 14 15 15 16 15 14 13 14 15 16 16 16 16 15 15 17 16 16 16 16 17 17 17 16 16 16 16 15 15 16 16 16 15 15 15 15 14 13 12 10 8 10 13 13 12 7 8 8 7 8 18 19 19 17 18 18 17 17 17 18 17
11 8 9 8 7 7 10 11 11 11 11 10 10 10 10 10 13 13 13 13 13 13 12 15 15 15 15 14 15 14 13 13 14 14 15 15 16 16 15 16 15 14 15 17 16 16 16 17 16 16 16 15 15 16 15 15 15 15 15 14 13 12 11 10 12 12 13 9 6 7 7 8 7 4 16 18 19 19 18 17 16 16 16 16 16
9 8 8 8 7 9 10 11 11 11 11 10 10 10 10 12 12 12 12 13 13 14 14 15 15 14 14 13 13 13 13 14 13 15 14 14 14 13 14 15 15 15 15 16 16 16 16 16 17 17 17 17 16 16 15 15 15 14 14 13 13 13 12 9 13 15 14 8 6 6 7 7 6 5 14 17 17 18 17 16 16 16 16 18 14
9 8 9 9 7 12 10 10 12 11 11 10 10 10 11 9 11 12 11 11 14 13 14 15 14 13 12 12 13 13 13 12 15 15 13 13 13 14 14 14 14 14 14 15 16 16 16 16 16 16 16 16 16 15 15 14 14 13 13 14 15 14 11 9 10 13 9 6 7 6 8 7 6 6 14 18 18 17 16 12 13 15 16 14 14
9 9 9 8 7 11 11 11 12 11 11 10 9 10 9 9 8 12 11 10 14 13 13 14 13 12 12 12 13 12 12 12 14 13 12 12 13 14 14 14 15 14 14 16 16 15 15 15 15 15 16 15 15 14 14 13 12 12 13 14 14 13 10 8 12 11 8 8 9 10 9 10 6 6 13 17 17 17 14 11 9 8 10 15 14
10 10 9 9 9 12 12 12 11 10 11 10 10 9 9 7 9 12 11 10 13 13 13 14 13 12 13 13 13 12 11 12 12 12 14 14 14 14 14 14 14 13 13 14 15 15 15 15 15 15 15 14 14 13 13 12 11 12 14 13 14 15 11 14 12 8 9 8 8 7 9 11 5 5 14 15 15 16 13 12 12 13 13 13 12
9 10 9 7 9 12 12 11 11 12 10 10 9 9 8 8 12 12 12 12 11 12 13 13 12 12 12 12 12 11 11 11 11 11 12 13 14 14 14 14 13 13 13 13 13 14 14 14 14 14 14 14 13 13 12 11 11 12 13 13 13 13 12 15 10 7 6 6 8 7 7 6 5 9 15 14 14 13 12 13 12 12 12 12 12
9 10 9 8 7 11 11 11 10 10 10 10 10 9 9 8 10 12 12 12 12 12 13 13 12 12 11 12 11 10 12 13 12 11 11 12 12 13 14 14 13 13 13 13 13 13 13 13 13 13 13 13 12 12 11 10 11 12 12 13 12 11 10 13 8 7 6 6 6 6 6 5 5 13 14 14 13 12 12 12 12 12 12 12 12
11 10 9 8 6 11 11 11 10 9 10 10 10 9 9 9 10 11 12 11 11 11 12 12 12 11 11 10 10 11 12 10 10 10 11 10 12 13 13 12 12 12 13 12 12 12 12 13 13 13 12 12 11 11 10 11 11 11 11 12 11 10 10 7 7 6 6 6 6 6 6 5 5 11 13 12 12 11 11 11 11 12 12 12 11
10 10 9 8 7 7 11 11 9 9 9 9 9 9 9 9 10 9 10 10 11 10 11 11 11 10 10 10 9 10 12 9 8 9 10 9 10 11 12 12 12 12 12 12 12 12 12 12 12 12 12 11 11 10 10 11 10 11 11 9 8 10 11 3 5 5 6 6 5 5 5 4 10 13 12 12 11 10 10 10 10 10 10 11 10
9 9 9 9 7 7 6 9 11 10 9 8 8 8 9 9 9 9 8 10 11 10 10 9 10 10 10 10 9 10 11 9 9 12 11 12 12 10 12 11 12 12 11 11 11 11 11 12 11 11 11 11 10 10 10 10 9 9 8 7 9 10 11 6 5 4 4 5 5 5 4 4 10 10 10 10 10 10 10 9 9 10 10 9 8
9 10 10 9 9 7 6 6 7 10 9 9 8 8 8 8 8 9 9 10 10 9 9 9 10 9 10 11 12 12 10 12 12 11 11 11 12 10 8 11 12 12 12 11 11 11 11 11 11 10 11 10 9 9 10 9 9 8 8 8 9 10 10 8 4 5 6 5 5 4 5 4 7 10 11 11 10 9 8 7 10 9 8 8 8
5 6 9 10 9 7 7 6 7 6 5 6 7 9 8 8 8 8 9 8 9 8 7 8 10 9 9 10 10 10 11 11 10 9 9 10 11 12 10 12 12 12 12 11 10 10 10 10 10 11 10 9 9 9 9 9 8 7 6 7 8 9 10 9 4 4 4 6 6 4 4 7 8 7 7 8 6 8 9 10 8 7 7 7 7
4 4 9 8 9 9 8 7 6 6 6 4 4 6 9 9 9 9 9 8 8 9 9 9 9 9 9 10 10 10 10 10 9 8 7 9 12 11 10 9 11 11 11 10 10 9 10 10 10 10 9 8 8 9 8 8 6 6 5 5 7 9 10 5 4 5 6 6 5 4 2 4 5 8 8 8 9 8 7 6 5 6 8 8 7
3 3 7 7 7 8 8 7 7 7 6 6 5 5 7 10 9 9 9 8 8 9 9 9 9 9 8 8 10 8 7 7 9 6 8 10 11 8 9 8 9 10 10 9 9 9 8 8 9 8 8 8 8 8 8 7 5 5 4 5 6 8 5 2 3 5 6 5 5 4 5 6 7 6 7 9 7 6 5 6 7 7 6 7 7
2 3 4 6 7 8 10 7 7 9 8 8 7 5 6 9 8 9 9 9 8 8 10 9 8 7 7 6 6 4 5 4 5 4 7 6 9 10 9 9 9 9 9 9 8 7 8 7 7 7 6 7 7 7 7 6 4 3 5 6 6 5 2 3 6 5 5 5 3 3 4 3 4 6 5 5 7 8 6 6 5 5 5 6 6
4 3 3 4 6 6 7 7 5 7 5 6 6 6 5 6 6 6 5 6 6 7 7 5 5 3 4 5 4 4 5 4 4 6 4 5 6 9 9 9 8 7 7 8 8 7 7 6 5 4 4 6 8 5 4 3 1 4 6 7 5 3 4 4 5 5 4 4 3 3 5 5 3 6 10 7 6 4 3 3 3 5 6 5 5
4 4 4 4 4 6 5 6 5 5 4 4 6 7 6 5 6 5 6 6 5 4 4 5 4 4 3 4 5 4 4 4 4 5 5 8 7 8 9 8 9 9 9 8 7 8 6 6 4 2 3 3 2 2 4 4 3 6 5 4 3 2 2 2 4 5 3 4 3 3 4 2 3 7 5 4 4 5 3 3 4 4 4 3 1
6 5 5 4 5 5 5 5 6 6 5 5 6 6 6 5 6 5 6 5 6 3 3 6 4 6 5 5 4 4 6 5 8 11 9 5 5 7 8 8 8 9 9 6 7 7 7 5 4 2 4 3 3 4 5 4 3 3 3 5 1 1 1 2 4 5 4 4 3 4 4 5 3 2 3 2 4 5 3 2 3 3 3 4 3
7 5 5 4 5 5 4 5 5 6 5 5 6 6 6 6 6 6 6 5 6 5 4 6 4 6 6 5 1 4 6 5 5 5 5 6 4 4 4 4 4 4 6 4 5 4 4 3 2 2 3 4 6 1 1 1 3 4 2 1 2 0 1 1 1 5 5 4 4 4 3 3 4 3 3 2 2 3 3 3 2 2 3 3 3
6 7 5 5 6 6 5 3 4 4 5 5 5 6 7 5 7 6 7 6 7 6 4 6 4 5 4 3 3 3 1 6 4 4 4 5 6 5 5 5 5 4 4 4 5 4 3 5 3 3 4 6 1 2 2 2 3 2 2 2 3 2 1 2 1 5 5 6 5 5 1 3 5 2 3 2 2 5 2 2 2 1 2 2 1
6 7 7 5 6 5 7 5 4 4 4 4 4 6 4 3 5 6 6 5 6 6 4 6 6 4 4 3 3 4 3 5 5 5 5 5 6 6 6 6 5 5 5 4 4 5 3 5 5 4 5 0 1 1 1 2 2 3 3 1 1 3 3 2 1 1 6 6 6 8 3 2 3 4 4 6 3 6 4 3 2 2 2 5 0
6 6 7 6 7 7 7 6 6 5 4 3 3 5 3 2 3 4 3 3 5 5 3 3 5 6 4 3 2 4 4 3 5 4 4 4 5 4 6 4 6 4 6 3 5 3 3 2 4 4 1 0 0 0 1 2 2 2 1 0 0 2 4 3 1 1 3 6 6 8 6 5 3 2 7 6 4 6 7 6 5 5 4 5 7
6 6 6 6 7 6 6 7 6 6 5 4 3 5 4 3 3 4 3 1 2 6 4 3 2 6 6 3 4 3 4 4 5 4 3 3 4 3 4 3 4 4 5 4 3 3 3 3 3 2 1 2 3 3 3 3 2 3 4 3 3 3 3 5 2 1 1 5 5 8 10 7 6 4 6 7 7 8 7 7 7 8 5 7 8
7 7 6 5 7 6 7 8 7 7 7 5 5 5 5 4 4 4 4 3 1 2 4 3 2 3 6 5 3 3 2 5 5 5 5 4 3 4 4 4 5 4 5 4 3 4 4 3 3 3 4 4 3 4 4 4 3 3 3 2 3 3 4 3 4 3 2 2 5 6 12 10 8 7 6 8 11 11 12 10 8 9 10 8 9
10 9 7 6 7 8 7 7 7 7 5 6 5 4 5 4 4 4 4 5 3 2 1 4 4 2 2 6 5 4 3 2 4 4 4 4 4 5 4 4 4 4 4 4 3 4 5 5 5 4 4 3 3 4 4 3 4 4 3 3 3 3 4 4 3 4 4 3 2 6 7 12 10 8 7 8 11 11 11 11 12 12 11 10 12
8 9 8 7 7 10 8 5 6 7 7 6 6 5 5 5 4 5 5 5 4 5 3 1 3 3 3 3 5 5 4 4 2 4 4 4 4 5 4 4 5 4 4 5 4 5 4 4 4 4 3 3 4 4 4 4 4 4 4 4 4 3 4 4 3 3 3 3 3 3 6 7 10 10 9 9 11 12 12 13 13 12 12 12 10
4 7 8 8 8 9 9 7 6 5 5 5 6 5 5 5 5 5 5 5 6 4 5 5 2 2 3 2 3 4 5 4 4 3 3 3 4 4 5 4 5 5 4 4 4 4 3 2 2 1 1 1 2 3 2 4 4 4 4 4 5 4 4 4 4 4 4 4 6 2 3 5 5 10 12 10 11 12 14 15 16 14 14 14 15
5 4 7 9 7 7 7 7 7 7 8 5 4 5 4 5 5 5 4 5 5 6 5 5 5 3 3 4 3 2 2 4 4 3 3 3 3 4 4 4 4 4 4 5 5 4 3 3 3 3 4 3 4 4 3 4 4 4 4 4 4 5 4 5 4 5 4 4 4 4 4 4 6 6 7 11 12 12 13 15 15 14 14 16 16
5 4 6 7 7 7 8 7 8 7 9 7 7 6 4 5 6 6 6 5 6 6 5 5 5 5 3 2 3 3 2 2 3 2 4 5 4 3 4 4 4 4 4 4 5 4 4 5 5 5 4 5 5 5 5 5 4 6 6 5 5 4 4 5 5 4 4 4 4 4 6 7 4 6 6 6 9 13 14 14 16 17 17 17 17
8 6 6 7 8 6 8 6 9 8 9 9 7 6 5 5 5 6 6 5 6 6 5 5 5 5 6 5 3 3 2 2 4 3 2 2 3 3 4 4 4 5 5 4 4 5 6 5 5 5 5 5 5 6 4 5 4 5 4 5 5 5 5 5 5 4 4 5 5 4 5 6 5 7 5 6 7 9 15 15 16 16 17 19 19
8 7 7 7 7 7 9 8 10 10 8 9 7 5 5 4 5 6 6 6 6 6 5 5 5 4 4 5 5 6 7 6 6 6 4 3 3 4 4 3 4 4 4 4 5 6 4 5 5 5 5 5 5 5 4 5 5 5 4 4 4 4 5 5 4 4 4 5 5 5 5 5 6 6 6 6 6 6 11 16 16 16 16 17 20
8 8 9 9 9 8 8 8 8 10 8 9 9 7 7 6 6 6 6 6 7 6 6 6 6 5 5 5 5 5 6 8 8 6 6 6 5 5 5 5 4 4 5 5 6 5 4 4 5 4 5 4 5 4 5 4 4 4 4 4 4 3 3 4 4 4 4 5 5 6 7 6 6 6 7 7 6 7 5 9 16 17 17 17 17
8 9 9 9 8 7 7 8 7 9 9 8 9 8 8 6 5 5 5 6 5 6 6 6 6 6 6 6 7 6 6 6 6 6 6 6 6 6 6 5 5 6 6 5 5 4 4 4 5 4 4 5 5 4 5 5 4 3 2 3 3 3 3 3 3 3 5 6 7 7 5 7 6 6 7 7 7 6 7 6 6 7 11 18 17
8 9 8 8 9 7 8 7 6 7 7 6 8 8 7 7 7 5 5 6 6 6 6 6 6 7 7 7 7 7 7 8 7 6 6 6 6 6 6 5 4 5 6 6 5 5 5 4 5 5 4 5 5 4 1 1 1 1 2 5 4 4 5 5 5 6 6 7 8 7 7 7 6 7 7 7 7 7 7 8 7 7 7 11 17
7 8 8 8 9 9 9 10 9 7 7 8 7 7 8 7 5 6 6 5 6 6 6 6 6 6 6 7 8 8 8 7 7 6 6 7 7 6 5 4 4 4 5 6 5 5 5 6 5 4 5 4 4 3 2 3 1 3 3 6 8 6 9 8 9 9 9 9 8 8 8 7 7 7 8 7 6 6 7 8 8 7 8 7 9
7 8 9 9 9 8 9 9 9 9 8 8 7 7 6 7 6 6 5 6 6 7 6 6 6 6 6 5 5 5 5 6 7 7 7 6 6 7 6 6 5 5 4 3 2 3 3 3 3 4 2 5 4 3 2 3 2 5 4 5 4 5 9 8 9 10 10 9 9 9 8 9 9 9 7 7 7 7 8 8 8 9 9 9 9
9 10 9 8 8 8 7 7 9 9 8 8 8 8 5 6 6 5 7 4 4 6 6 5 5 5 5 5 6 6 6 5 6 7 6 5 4 4 4 4 4 5 4 4 3 4 4 5 5 6 4 2 2 1 5 7 6 2 2 2 6 4 2 2 6 9 8 9 8 9 10 9 10 9 8 7 7 8 8 8 9 9 10 10 9
7 6 7 9 8 8 6 7 8 8 8 8 7 6 6 5 5 5 6 5 3 1 3 6 4 4 6 6 5 5 5 6 6 6 6 6 6 6 5 5 6 7 7 6 5 7 6 6 5 6 5 4 3 6 5 5 5 3 4 5 2 1 9 5 4 5 8 11 9 10 7 8 9 8 6 9 9 8 8 7 9 10 10 10 9
6 8 8 9 8 9 9 8 7 7 8 7 7 6 6 5 6 3 4 5 2 3 2 3 6 4 3 3 5 5 6 6 6 7 8 8 7 7 7 7 8 8 7 8 8 9 8 7 8 7 7 8 7 5 4 6 7 7 6 1 3 1 6 6 4 6 5 4 6 8 8 8 8 9 8 9 7 7 8 8 9 9 9 10 10
7 6 6 7 6 7 7 7 6 6 7 7 8 6 7 8 7 7 6 3 3 3 6 6 4 4 3 1 1 1 2 3 5 6 6 5 6 7 7 7 5 6 5 5 5 4 5 7 8 8 7 7 8 6 5 4 8 9 9 8 7 7 5 2 5 7 2 3 5 6 8 8 7 8 7 7 7 8 8 9 9 10 9 9 10
6 4 3 5 5 6 6 7 6 6 6 6 7 7 6 7 7 7 6 6 6 4 3 4 5 3 3 4 4 4 4 3 3 3 3 5 6 6 6 6 6 5 5 5 6 6 7 7 6 6 8 7 5 7 8 6 3 7 8 10 10 9 7 5 7 5 11 1 3 2 5 5 7 8 8 8 8 8 8 9 10 10 10 9 9
4 5 4 4 5 5 6 6 5 6 5 6 7 7 7 6 5 5 6 6 6 4 4 4 3 2 2 3 4 5 4 4 3 3 3 3 4 5 5 5 5 5 5 6 7 7 5 4 6 8 8 7 8 8 8 6 6 5 6 9 8 8 6 7 7 8 9 12 12 7 8 9 6 8 8 9 9 9 10 10 10 10 10 10 9
4 5 4 3 3 4 5 5 5 5 5 6 7 6 6 6 5 5 4 4 5 3 1 2 4 5 4 0 2 2 2 0 1 0 0 1 1 3 4 4 4 4 5 5 4 4 7 9 7 6 7 7 6 7 6 7 7 9 3 6 6 7 6 7 7 5 7 10 15 10 12 4 7 9 8 8 9 9 10 11 11 12 11 10 9
4 4 4 3 2 3 5 5 5 4 5 5 6 5 5 5 5 5 5 4 3 2 2 1 4 4 3 2 2 2 2 3 3 3 2 1 1 0 0 1 2 2 2 3 5 6 6 7 8 7 8 9 7 7 8 8 7 7 5 4 4 3 4 5 5 6 6 8 13 14 11 12 13 9 7 7 8 10 10 11 12 11 10 9 9
3 4 5 5 5 5 5 5 5 5 6 6 5 6 5 5 5 5 6 5 4 4 3 2 2 2 1 3 3 3 4 4 3 2 2 3 3 3 3 1 1 1 3 3 4 3 3 4 4 4 5 6 6 8 9 8 7 7 7 5 6 7 7 8 6 5 7 7 7 12 12 10 10 14 9 9 10 11 11 11 11 10 10 9 9
Wind_Direction
113 111 102 109 98 91 87 85 83 80 80 80 77 79 81 75 80 79 74 74 76 77 85 86 80 82 81 81 78 74 72 70 72 74 71 68 68 68 64 62 68 68 65 63 65 69 67 66 65 65 65 63 62 66 69 71 71 71 72 72 73 75 78 79 77 69 64 65 73 76 74 76 78 79 79 78 77 78 75 73 70 66 65 68 70
119 115 112 104 101 91 87 84 81 81 82 84 83 78 78 77 75 72 76 79 79 84 88 89 92 88 86 83 78 74 70 71 70 72 73 70 69 71 74 73 70 69 69 66 63 67 70 68 67 65 63 64 67 67 67 64 64 65 65 64 62 65 69 75 78 78 73 67 65 67 71 74 77 80 79 77 77 78 77 74 71 70 70 73 72
117 113 112 107 95 93 88 83 80 79 80 79 76 73 73 72 73 72 77 85 87 87 86 91 94 94 86 79 76 73 73 75 77 76 75 72 68 64 68 71 72 71 71 72 73 70 68 69 67 67 69 69 68 65 62 61 61 61 61 61 61 61 61 61 74 84 89 85 74 66 62 69 76 78 78 78 76 70 71 76 74 67 69 71 69
114 113 112 102 91 94 92 87 86 86 83 75 73 76 77 82 79 74 80 85 92 92 93 90 84 82 82 80 77 77 76 77 79 82 78 76 76 76 79 76 72 71 73 73 71 71 71 73 74 70 68 67 68 67 63 63 63 62 61 58 56 55 54 62 70 58 60 84 78 68 62 59 65 79 83 81 78 76 76 76 75 73 70 69 67
115 117 118 115 107 98 99 100 97 91 86 81 74 75 74 83 86 84 86 89 89 89 89 88 87 86 79 78 78 77 77 78 80 79 81 80 79 73 73 74 74 75 73 73 74 74 74 74 74 72 73 70 69 67 64 64 64 62 58 54 50 45 42 41 54 74 67 65 70 72 64 60 66 72 78 80 78 73 69 69 72 73 67 67 67
119 127 127 117 105 102 103 104 101 94 89 86 81 80 95 85 94 92 85 86 90 89 82 82 81 80 83 82 83 83 80 79 80 81 81 79 79 80 74 66 67 71 76 78 74 72 74 74 73 74 73 72 73 69 65 64 64 60 53 47 42 36 31 27 30 45 67 66 66 64 64 61 58 67 81 86 85 78 71 68 68 70 70 69 69
130 129 124 118 115 110 105 107 105 99 93 93 92 88 83 80 70 70 81 90 94 90 85 83 81 81 82 80 82 82 80 78 82 82 83 86 86 81 79 77 76 77 74 72 73 75 73 75 76 76 75 75 74 73 72 70 65 56 49 44 37 30 28 31 55 64 67 66 69 66 66 65 59 63 75 78 78 79 74 73 73 74 73 73 74
102 119 124 115 114 118 117 112 108 107 98 96 101 102 97 89 85 81 76 86 89 91 91 90 85 83 81 86 87 86 80 82 88 86 82 80 78 81 80 78 76 72 78 79 78 75 76 76 77 77 78 76 76 78 79 81 62 53 46 39 33 25 20 29 70 67 68 65 65 68 70 64 66 57 63 67 72 73 75 76 74 71 74 72 61
118 120 117 112 113 118 119 117 113 109 104 96 94 97 96 83 90 84 79 85 93 92 91 86 84 83 85 86 87 88 88 86 83 86 86 84 80 76 78 77 79 78 77 81 81 77 77 77 78 77 77 77 78 78 78 73 56 52 45 40 33 22 9 21 69 81 71 65 72 83 77 68 62 61 70 72 71 69 66 56 63 74 76 73 74
126 124 114 116 121 122 122 120 116 113 109 105 98 94 86 66 73 83 84 85 97 99 93 86 85 87 89 88 90 89 85 88 91 92 94 90 85 82 82 80 76 77 76 73 76 81 83 82 80 79 79 79 76 74 76 69 55 51 46 41 30 23 17 40 53 57 70 76 71 70 75 76 60 63 73 74 75 76 70 68 67 59 65 79 78
127 121 117 121 125 126 125 122 119 115 110 109 106 96 85 78 92 94 93 91 100 99 90 89 88 91 91 91 93 92 91 86 88 88 83 86 83 83 81 81 79 77 79 84 83 82 82 82 82 79 78 78 75 74 72 63 55 47 47 41 31 22 25 50 54 60 59 58 60 66 70 73 73 75 78 80 80 87 80 67 72 74 78 80 81
122 113 114 119 126 126 124 122 122 118 115 111 109 101 89 87 89 96 92 92 91 93 92 89 89 89 91 95 95 96 95 93 92 85 84 85 86 88 86 80 83 85 83 80 80 79 80 81 79 79 76 73 73 72 74 63 55 47 43 34 25 23 36 53 55 52 57 64 67 66 66 63 71 73 74 74 74 72 76 81 76 75 77 79 75
109 110 117 125 123 126 125 122 121 122 119 114 112 107 96 89 101 102 93 93 93 95 93 90 88 86 91 97 98 98 91 83 83 88 88 95 96 93 86 84 81 81 82 81 81 80 80 79 78 76 74 73 73 75 72 66 56 48 37 32 25 21 28 68 67 63 52 52 63 64 62 54 60 78 74 68 69 68 66 69 78 82 80 79 78
115 124 131 130 128 131 126 124 125 123 120 116 113 113 104 97 89 91 98 92 92 96 97 93 88 87 91 95 97 95 92 89 90 94 92 91 89 84 84 86 83 82 79 79 79 81 80 82 81 78 76 74 76 78 75 69 59 47 37 31 22 15 17 83 84 75 71 63 66 72 71 58 57 70 73 74 69 68 70 69 66 67 70 73 76
129 135 130 126 130 131 128 125 121 118 119 121 118 116 114 111 97 90 98 100 99 98 98 97 91 91 95 100 93 84 62 74 100 97 89 87 88 87 87 85 87 85 82 79 78 78 81 82 80 78 79 79 77 75 73 66 58 46 39 26 14 19 21 35 81 85 76 77 67 62 64 72 78 77 73 76 78 78 78 78 78 79 84 83 79
125 126 125 131 135 129 128 124 121 122 123 123 122 118 117 114 103 89 95 108 103 99 99 102 103 98 96 98 93 75 62 67 70 73 66 58 51 78 87 91 92 90 86 83 83 83 84 84 83 81 81 83 81 76 71 66 57 49 34 23 19 16 19 33 63 69 84 95 92 74 61 68 84 87 91 88 81 77 76 78 81 78 70 74 83
126 138 134 138 133 145 134 133 129 125 124 125 122 115 111 112 107 89 74 104 108 105 104 107 112 106 92 79 69 68 68 70 72 76 74 60 50 38 104 100 95 87 81 81 79 79 81 83 82 82 80 79 80 74 70 63 52 39 28 25 16 9 11 17 67 70 75 76 71 68 61 62 68 71 65 74 73 76 87 79 72 78 90 90 89
128 141 138 140 145 147 143 135 135 132 127 124 123 121 112 106 99 91 84 83 96 92 84 93 93 79 79 74 70 70 70 66 66 66 72 72 54 43 64 85 86 85 81 75 76 80 82 83 83 81 81 78 72 73 69 64 56 37 33 15 0 358 355 346 71 71 80 72 70 74 70 77 79 86 87 84 89 84 74 79 91 94 83 82 77
147 160 140 147 154 145 145 142 155 146 147 142 135 123 119 113 107 100 92 88 89 97 100 103 99 93 88 87 85 84 79 76 70 66 62 66 66 52 57 89 91 87 85 81 81 82 83 80 79 81 81 84 77 72 68 63 48 29 14 358 351 350 337 338 55 74 67 76 76 70 69 107 116 86 79 72 61 68 83 97 98 93 104 104 92
164 190 147 153 153 145 142 153 170 157 166 153 138 130 126 121 111 103 103 99 99 105 110 105 102 100 98 102 109 103 95 93 88 69 66 66 70 69 66 82 89 86 87 88 86 86 83 84 83 82 85 84 78 70 62 57 42 8 355 329 347 340 315 355 56 79 81 94 93 90 81 85 90 105 95 92 116 109 93 74 73 81 73 73 87
174 202 168 152 152 144 152 161 182 156 177 149 139 132 128 117 107 105 105 106 106 110 109 105 100 105 110 124 145 149 133 132 116 105 71 73 76 75 77 80 86 86 85 92 92 87 86 84 81 81 92 92 90 75 61 49 21 336 335 315 336 328 311 13 63 64 70 101 102 113 94 358 101 104 97 112 61 54 72 98 105 93 99 105 93
181 195 189 161 154 148 160 162 172 154 168 134 134 131 145 141 127 127 119 115 112 117 123 128 129 121 141 162 193 182 152 165 136 131 112 94 79 85 84 90 88 86 91 97 99 91 86 83 76 89 119 153 136 124 112 94 321 300 275 307 332 292 20 11 78 65 65 92 96 82 91 110 105 92 89 72 88 92 108 97 81 109 99 106 110
183 192 189 178 166 149 160 161 156 149 147 128 126 131 159 162 146 152 138 144 144 154 156 146 164 146 184 205 223 183 145 102 108 105 109 93 96 98 98 98 95 91 87 80 92 100 97 85 80 99 214 208 240 225 158 155 210 258 293 297 273 35 343 17 91 102 83 101 95 76 358 212 152 107 98 117 156 140 97 90 93 104 129 123 73
182 186 177 181 170 156 173 164 155 150 154 139 128 142 171 175 151 155 145 153 149 192 195 160 182 156 193 227 218 133 105 114 114 119 119 116 101 97 107 106 111 111 111 105 97 106 112 115 129 215 267 267 250 232 185 167 204 238 259 259 218 75 315 345 110 117 122 122 134 84 15 331 134 147 120 132 48 109 128 155 156 133 117 112 123
173 176 174 181 171 165 171 163 154 150 157 142 146 157 180 175 148 162 153 163 151 181 209 163 188 159 196 233 197 117 126 132 131 142 155 144 141 139 146 147 148 150 146 141 144 155 158 152 163 220 257 251 241 253 121 201 186 197 244 37 39 88 347 346 139 126 119 130 146 97 7 322 168 141 140 193 168 145 177 163 152 165 126 144 151
149 166 184 184 176 169 164 168 151 157 154 147 170 160 169 171 150 171 158 171 156 180 192 160 177 151 190 245 112 116 150 134 140 165 194 158 158 168 180 191 179 178 184 189 166 175 185 177 170 199 234 247 257 33 30 52 4 351 34 35 10 333 294 260 121 135 144 131 139 125 92 339 194 200 255 223 127 161 182 188 214 188 223 167 175
159 178 177 182 173 174 162 164 160 162 165 162 164 136 163 171 154 164 156 171 153 168 193 164 166 157 173 228 130 136 211 141 156 183 203 158 166 176 185 197 181 169 186 207 177 174 186 159 175 211 234 149 39 4 359 348 354 352 353 68 335 330 307 302 113 136 145 144 153 155 164 218 254 301 251 226 219 171 165 230 257 248 213 259 89
157 185 172 176 171 179 163 161 170 161 174 168 155 135 172 170 144 132 139 164 146 158 189 185 160 159 165 192 176 164 197 167 166 173 217 154 177 181 186 174 164 179 189 202 158 147 161 188 187 222 216 55 164 283 284 229 252 248 274 272 224 309 303 301 277 193 143 154 165 174 172 207 225 259 281 240 189 206 194 206 233 241 222 254 205
163 179 177 170 166 176 165 173 170 166 168 169 179 154 175 175 143 132 153 157 149 152 178 204 179 154 164 177 172 216 183 187 161 177 191 195 177 174 165 164 157 192 162 229 146 153 176 206 200 191 163 216 212 204 237 256 229 231 223 232 201 229 279 285 304 303 184 157 174 185 184 195 209 206 258 234 217 219 228 229 223 232 247 223 252
171 171 172 178 161 171 184 184 168 173 170 169 181 168 174 168 156 154 169 152 204 170 166 188 228 160 158 169 170 232 216 186 168 175 174 206 176 174 165 176 177 192 166 199 186 159 188 210 202 189 200 215 213 210 199 224 230 251 234 214 201 213 237 257 276 283 266 213 178 194 193 196 206 205 208 217 219 213 213 225 236 222 244 242 249
169 171 171 180 164 172 196 182 170 170 169 170 173 177 165 173 163 167 163 156 183 256 161 174 193 227 169 168 171 195 266 251 171 179 180 184 180 164 188 187 179 194 171 190 191 178 193 192 194 200 206 209 219 223 189 214 229 222 233 222 236 222 247 251 245 256 260 261 208 180 204 203 202 211 215 226 230 238 239 232 221 226 244 247 226
168 173 171 173 170 172 185 183 173 165 165 170 167 175 172 176 174 171 168 162 170 188 237 237 183 185 226 162 176 166 209 270 237 177 184 175 182 174 185 192 196 193 174 187 190 188 192 205 190 191 205 201 215 220 197 196 245 228 211 215 224 243 255 258 260 265 265 277 268 185 190 209 207 209 222 223 229 230 232 239 238 238 239 244 238
190 170 166 167 172 168 172 184 176 160 166 172 167 175 169 172 173 174 163 163 170 179 185 223 230 198 204 203 176 172 178 209 262 206 180 179 186 185 188 197 192 188 179 181 183 175 202 210 217 151 261 303 287 274 225 196 231 256 224 218 197 220 237 250 249 250 255 256 268 230 197 210 213 220 219 223 229 233 233 237 245 255 242 232 236
186 176 159 170 171 164 167 177 184 170 174 180 172 173 179 173 171 173 181 163 171 177 192 183 203 231 196 201 179 174 182 195 213 230 173 209 221 197 188 197 190 186 176 175 174 169 191 203 210 162 216 232 243 245 240 237 236 246 256 226 195 212 217 231 241 237 237 239 243 262 243 196 210 221 224 228 229 232 239 240 246 246 246 245 259
173 181 173 174 177 164 167 179 178 175 169 186 186 177 187 183 170 178 186 177 172 183 186 188 187 200 213 173 179 171 210 268 261 236 208 193 216 220 199 197 189 194 179 184 175 183 186 205 195 192 206 217 225 230 224 227 221 223 232 223 210 216 219 225 233 238 238 242 230 230 239 252 220 202 215 225 230 232 234 239 239 241 242 246 253
177 182 178 173 180 170 165 169 172 181 174 184 185 180 185 185 181 182 182 180 174 179 188 195 185 192 194 181 174 185 175 248 275 281 303 239 202 224 214 200 199 191 186 185 175 191 204 208 207 191 204 220 212 233 229 232 230 233 232 218 212 202 212 225 233 233 235 235 236 234 237 238 239 238 230 210 216 227 230 232 236 239 242 245 250
174 176 180 178 179 178 166 171 172 183 176 177 176 180 193 198 194 191 188 177 177 182 188 182 185 186 198 196 184 188 193 203 225 256 260 257 249 245 252 227 207 190 184 190 193 203 203 207 218 208 191 212 209 224 229 224 230 232 239 228 221 200 207 213 222 228 237 231 231 231 235 236 240 239 239 240 229 216 226 229 232 235 238 242 245
177 179 181 182 184 179 172 177 170 179 181 176 179 181 192 202 202 194 193 185 181 182 187 179 186 188 190 200 190 188 201 208 208 206 214 228 226 225 237 241 226 198 186 192 207 205 214 202 219 220 203 211 227 216 226 231 227 229 237 230 228 212 231 234 236 250 241 246 239 234 229 229 231 234 235 233 235 236 230 225 231 233 234 235 238
179 181 179 179 182 177 169 175 170 172 182 175 174 178 186 202 204 195 190 195 188 184 186 189 184 188 193 194 194 197 204 211 209 205 207 210 218 220 216 219 211 206 199 195 203 205 214 219 204 225 214 206 214 224 221 212 234 247 248 270 272 251 262 250 251 252 247 240 241 242 236 235 232 233 233 232 234 234 236 238 225 230 237 237 237
174 181 179 173 179 175 167 170 180 172 169 176 165 176 179 189 199 202 202 194 197 194 195 197 189 190 193 190 194 200 201 203 204 206 209 210 213 218 220 215 218 206 197 191 199 199 210 224 232 210 218 227 217 221 135 100 53 17 290 286 277 278 268 258 258 247 245 244 243 240 240 240 235 236 231 230 229 228 231 236 237 232 228 235 236
173 179 182 180 180 179 164 176 182 178 171 175 176 172 177 184 187 191 198 194 192 190 196 198 202 203 198 193 193 197 197 190 196 204 216 216 214 213 212 219 222 211 203 206 192 197 206 210 215 207 222 232 240 180 96 105 75 314 271 262 272 248 247 243 244 244 240 242 241 243 242 241 240 238 236 233 230 227 230 234 238 237 238 236 239
189 180 188 187 182 181 178 173 173 184 183 179 176 182 185 184 179 188 182 190 181 182 195 198 203 205 200 198 191 175 183 193 196 206 217 220 213 204 200 212 204 218 233 238 216 213 227 220 187 217 222 219 228 177 161 106 254 230 272 290 275 259 240 231 239 242 239 240 237 238 239 238 241 238 237 231 231 225 229 231 232 235 237 239 240
184 185 188 182 183 187 188 176 173 180 186 179 174 184 180 175 169 183 179 190 188 180 179 189 190 195 201 199 189 178 180 192 190 200 212 221 218 212 219 214 215 203 214 235 239 241 225 216 195 202 224 244 243 205 181 184 233 159 182 328 280 314 282 267 253 251 238 239 234 235 234 234 240 237 235 231 230 228 227 226 230 231 235 235 237
181 188 183 186 187 188 185 181 177 176 182 185 178 174 169 170 168 169 177 156 157 122 174 197 207 203 212 206 204 188 190 198 198 195 205 215 213 211 209 215 217 203 200 208 218 236 231 226 217 223 201 227 208 242 202 198 204 120 291 211 270 62 305 271 265 260 223 233 225 235 231 234 237 243 232 233 235 232 233 226 231 232 234 234 234
192 188 186 185 187 187 186 181 181 177 175 177 176 163 153 155 161 133 90 89 81 104 88 200 202 210 222 203 206 192 197 200 195 197 203 215 215 215 218 218 209 206 200 204 207 210 208 215 215 217 210 218 238 236 231 195 207 206 215 288 308 286 229 272 327 273 221 236 243 234 237 231 233 236 230 238 239 238 238 236 236 237 237 234 235
203 202 188 183 172 178 176 175 175 173 170 171 172 158 159 160 159 167 166 163 176 171 185 198 204 206 209 229 294 186 189 192 191 194 201 209 213 215 215 214 209 202 196 203 208 211 214 212 213 213 220 219 230 237 246 201 211 210 221 232 232 259 285 262 4 298 360 201 242 229 233 230 230 238 233 241 236 240 235 241 240 242 238 235 234
207 192 167 170 161 165 168 170 170 168 164 160 165 158 157 165 172 175 170 177 184 218 195 195 183 196 195 220 227 245 242 234 251 236 201 188 200 211 218 225 227 218 205 203 211 218 225 219 195 199 215 216 214 241 241 229 213 235 222 229 244 253 259 286 264 313 300 269 245 297 263 241 234 235 236 235 235 237 239 238 243 244 242 239 235
175 162 170 165 158 160 159 161 157 158 161 154 158 164 164 169 170 175 171 175 180 191 189 193 170 167 177 212 206 212 224 226 238 243 248 240 222 220 216 219 221 223 209 213 217 216 217 225 209 208 210 206 204 218 235 223 199 237 209 233 238 250 258 260 258 259 275 294 284 265 258 268 247 246 232 235 233 232 240 240 243 240 240 239 234
119 136 144 156 147 143 142 144 146 146 157 152 152 159 158 168 169 167 165 169 156 175 173 173 176 189 200 47 58 29 13 21 130 127 68 45 154 209 226 235 231 229 216 227 230 226 226 232 230 218 215 220 213 220 223 231 224 243 184 234 231 237 240 237 250 235 251 273 279 277 282 244 251 256 253 234 237 234 237 243 241 240 238 239 233
103 123 132 130 137 131 137 138 146 138 151 150 147 158 159 157 164 164 152 153 133 162 171 78 58 37 60 32 27 21 11 8 9 21 22 22 10 46 223 247 265 276 273 251 236 229 231 230 228 216 207 212 212 214 222 233 236 245 222 197 192 242 253 264 241 231 245 234 263 282 278 287 284 263 237 247 235 243 243 246 245 243 240 239 234
133 123 139 156 162 152 152 148 160 141 153 158 151 163 158 151 158 156 151 150 162 168 164 95 84 48 40 2 3 6 358 338 340 356 19 8 351 351 339 307 305 306 303 314 311 291 270 258 247 231 225 223 223 224 229 236 238 242 246 231 222 205 215 235 230 207 220 246 267 268 273 263 258 284 258 235 246 240 236 243 244 243 240 237 235